W0AKY-13 Weather Reports


time (UTC)temp
F
wind
direction
speed
knots
gust
knots
rain 1hr
in
rain 24hr
in
rain mn
in
humidity
%
barometer
mb
20260505025453 60 44 2.6 2.6 0.00 0.00 0.00 43 1009.2
20260505024952 60 33 1.7 2.6 0.00 0.00 0.00 43 1008.9
20260505024448 60 23 0.9 0.9 0.00 0.00 0.00 44 1009.0
20260505023946 60 41 2.6 2.6 0.00 0.00 0.00 43 1008.6
20260505023442 60 41 2.6 5.2 0.00 0.00 0.00 42 1008.6
20260505022940 60 3 4.3 5.2 0.00 0.00 0.00 41 1008.3
20260505022437 61 34 1.7 2.6 0.00 0.00 0.00 41 1008.4
20260505021934 61 16 2.6 2.6 0.00 0.00 0.00 41 1008.2
20260505021431 62 28 3.5 5.2 0.00 0.00 0.00 39 1007.9
20260505020926 62 320 3.5 6.1 0.00 0.00 0.00 40 1007.7
20260505020422 62 58 3.5 4.3 0.00 0.00 0.00 38 1007.8
20260505015919 63 5 4.3 5.2 0.00 0.00 0.00 37 1007.6
20260505015416 64 36 1.7 2.6 0.00 0.00 0.00 37 1007.4
20260505014914 64 32 2.6 2.6 0.00 0.00 0.00 37 1007.3
20260505014410 64 31 2.6 4.3 0.00 0.00 0.00 36 1007.0
20260505013907 64 57 2.6 4.3 0.00 0.00 0.00 36 1006.8
20260505013404 65 73 3.5 4.3 0.00 0.00 0.00 36 1006.6
20260505012902 66 315 5.2 7.0 0.00 0.00 0.00 35 1006.8
20260505012400 66 36 2.6 4.3 0.00 0.00 0.00 36 1006.7
20260505011856 67 44 2.6 2.6 0.00 0.00 0.00 36 1006.6
20260505011353 68 22 2.6 4.3 0.00 0.00 0.00 35 1006.5
20260505010849 68 12 2.6 4.3 0.00 0.00 0.00 35 1006.3
20260505010345 68 44 3.5 6.1 0.00 0.00 0.00 34 1006.3
20260505005841 68 22 3.5 5.2 0.00 0.00 0.00 34 1006.3
20260505005338 68 42 2.6 2.6 0.00 0.00 0.00 35 1006.2
20260505004836 69 37 1.7 2.6 0.00 0.00 0.00 34 1006.3
20260505004332 69 13 2.6 4.3 0.00 0.00 0.00 34 1006.3
20260505003829 69 13 3.5 6.1 0.00 0.00 0.00 33 1006.2
20260505003326 70 41 1.7 2.6 0.00 0.00 0.00 33 1006.0
20260505002822 71 41 3.5 4.3 0.00 0.00 0.00 32 1005.8
20260505002319 71 41 4.3 6.1 0.00 0.00 0.00 32 1005.7
20260505001818 71 39 6.1 7.0 0.00 0.00 0.00 31 1005.9
20260505001314 71 45 3.5 7.0 0.00 0.00 0.00 32 1005.9
20260505000812 71 40 1.7 1.7 0.00 0.00 0.00 32 1006.2
20260505000310 72 35 2.6 2.6 0.00 0.00 0.00 33 1005.8
20260504235806 72 22 3.5 4.3 0.00 0.00 0.00 32 1005.9
20260504235304 73 31 3.5 6.1 0.00 0.00 0.00 32 1005.8
20260504234759 73 339 0.9 1.7 0.00 0.00 0.00 32 1005.5
20260504234257 73 46 3.5 5.2 0.00 0.00 0.00 33 1005.5
20260504233753 73 26 2.6 5.2 0.00 0.00 0.00 32 1005.5
20260504233249 74 46 1.7 2.6 0.00 0.00 0.00 33 1005.3
20260504232746 75 33 2.6 2.6 0.00 0.00 0.00 33 1005.6
20260504232243 75 45 1.7 2.6 0.00 0.00 0.00 32 1005.4
20260504231740 76 34 1.7 2.6 0.00 0.00 0.00 33 1005.0
20260504231236 76 27 2.6 2.6 0.00 0.00 0.00 32 1004.6
20260504230732 76 20 1.7 2.6 0.00 0.00 0.00 34 1004.7
20260504230231 76 41 2.6 2.6 0.00 0.00 0.00 33 1004.7
20260504225730 76 32 2.6 4.3 0.00 0.00 0.00 32 1004.6
20260504225225 76 37 0.9 1.7 0.00 0.00 0.00 33 1004.5
20260504224722 77 13 3.5 4.3 0.00 0.00 0.00 36 1004.4
20260504224220 78 16 2.6 4.3 0.00 0.00 0.00 35 1004.3
20260504223716 79 38 2.6 4.3 0.00 0.00 0.00 33 1004.1
20260504223211 78 333 4.3 6.1 0.00 0.00 0.00 35 1004.1
20260504222709 80 17 3.5 5.2 0.00 0.00 0.00 34 1003.9
20260504222205 80 52 1.7 1.7 0.00 0.00 0.00 34 1003.8
20260504221703 81 37 4.3 7.0 0.00 0.00 0.00 34 1003.8
20260504221200 80 37 0.9 1.7 0.00 0.00 0.00 32 1003.5
20260504220656 81 29 2.6 4.3 0.00 0.00 0.00 33 1003.6
20260504220154 81 34 2.6 4.3 0.00 0.00 0.00 32 1003.6
20260504215650 81 19 0.9 1.7 0.00 0.00 0.00 32 1003.4
20260504215148 82 38 3.5 7.0 0.00 0.00 0.00 33 1003.5
20260504214643 82 325 8.7 11.3 0.00 0.00 0.00 31 1003.2
20260504214140 81 31 3.5 5.2 0.00 0.00 0.00 33 1003.5
20260504213637 81 306 4.3 5.2 0.00 0.00 0.00 33 1003.4
20260504213133 80 47 3.5 4.3 0.00 0.00 0.00 34 1003.4
20260504212630 81 2 3.5 4.3 0.00 0.00 0.00 33 1003.4
20260504212127 81 302 4.3 5.2 0.00 0.00 0.00 33 1003.3
20260504211624 82 317 4.3 5.2 0.00 0.00 0.00 31 1003.2
20260504211120 82 7 2.6 5.2 0.00 0.00 0.00 33 1003.2
20260504210619 82 24 1.7 1.7 0.00 0.00 0.00 32 1003.2
20260504210114 83 327 2.6 2.6 0.00 0.00 0.00 36 1003.1
20260504205612 83 326 3.5 4.3 0.00 0.00 0.00 30 1003.1
20260504205110 84 17 2.6 2.6 0.00 0.00 0.00 31 1003.0
20260504204608 83 8 3.5 4.3 0.00 0.00 0.00 31 1003.2
20260504204106 83 59 5.2 7.8 0.00 0.00 0.00 31 1003.2
20260504203605 83 23 4.3 5.2 0.00 0.00 0.00 31 1003.2
20260504203102 83 12 2.6 5.2 0.00 0.00 0.00 30 1003.2
20260504202557 83 36 2.6 4.3 0.00 0.00 0.00 32 1003.0
20260504202054 82 308 4.3 5.2 0.00 0.00 0.00 30 1003.2
20260504201551 82 289 4.3 7.8 0.00 0.00 0.00 24 1002.9
20260504201049 85 316 6.1 7.0 0.00 0.00 0.00 24 1003.1
20260504200545 85 42 2.6 4.3 0.00 0.00 0.00 28 1003.2
20260504200042 84 294 4.3 5.2 0.00 0.00 0.00 26 1003.1
20260504195538 84 2 2.6 4.3 0.00 0.00 0.00 26 1003.1
20260504195034 84 4 5.2 6.1 0.00 0.00 0.00 27 1003.1
20260504194531 83 339 1.7 1.7 0.00 0.00 0.00 30 1003.2
20260504194026 84 65 4.3 5.2 0.00 0.00 0.00 29 1003.1
20260504193523 83 15 2.6 4.3 0.00 0.00 0.00 28 1003.1
20260504193022 82 38 1.7 1.7 0.00 0.00 0.00 28 1003.0
20260504192520 82 45 0.9 0.9 0.00 0.00 0.00 30 1003.0
20260504192018 83 36 1.7 1.7 0.00 0.00 0.00 33 1003.3
20260504191515 84 51 4.3 5.2 0.00 0.00 0.00 30 1003.2
20260504191011 83 39 0.9 1.7 0.00 0.00 0.00 26 1003.1
20260504190507 83 24 2.6 2.6 0.00 0.00 0.00 26 1003.0
20260504190004 82 44 0.9 1.7 0.00 0.00 0.00 28 1002.9
20260504185501 83 18 0.9 0.9 0.00 0.00 0.00 27 1002.9
20260504184957 83 35 0.0 0.9 0.00 0.00 0.00 29 1003.1
20260504184453 83 35 0.0 0.9 0.00 0.00 0.00 28 1003.2
20260504183948 83 287 1.7 1.7 0.00 0.00 0.00 24 1003.1
20260504183446 82 331 0.9 1.7 0.00 0.00 0.00 24 1003.5
20260504182944 83 335 1.7 1.7 0.00 0.00 0.00 24 1003.4
20260504182440 82 271 1.7 2.6 0.00 0.00 0.00 24 1003.5
20260504181938 81 17 0.9 1.7 0.00 0.00 0.00 25 1003.5
20260504181435 81 349 3.5 4.3 0.00 0.00 0.00 27 1003.5
20260504180933 81 16 4.3 5.2 0.00 0.00 0.00 25 1003.5
20260504180432 81 39 2.6 4.3 0.00 0.00 0.00 30 1003.3
20260504175930 81 39 0.9 1.7 0.00 0.00 0.00 27 1003.6
20260504175426 81 321 1.7 2.6 0.00 0.00 0.00 31 1003.6
20260504174924 80 315 5.2 6.1 0.00 0.00 0.00 28 1003.9
20260504174421 80 289 2.6 4.3 0.00 0.00 0.00 31 1003.6
20260504173919 80 33 3.5 5.2 0.00 0.00 0.00 29 1003.7
20260504173415 80 32 1.7 2.6 0.00 0.00 0.00 27 1003.7
20260504172913 79 338 3.5 4.3 0.00 0.00 0.00 30 1003.6
20260504172409 80 42 3.5 4.3 0.00 0.00 0.00 29 1003.7
20260504171905 79 46 0.0 0.9 0.00 0.00 0.00 34 1003.8
20260504171402 79 49 1.7 2.6 0.00 0.00 0.00 31 1003.7
20260504170859 80 335 2.6 2.6 0.00 0.00 0.00 31 1003.7
20260504170355 80 349 2.6 2.6 0.00 0.00 0.00 32 1003.6
20260504160315 74 31 1.7 1.7 0.00 0.00 0.00 46 1003.8
20260504150739 69 0 2.6 2.6 0.00 0.00 0.00 48 1003.7
20260504150236 68 292 1.7 2.6 0.00 0.00 0.00 50 1003.7
20260504141205 62 53 0.9 0.9 0.00 0.00 0.00 63 1003.7
20260504140702 61 345 1.7 1.7 0.00 0.00 0.00 62 1004.2
20260504140158 60 30 0.0 0.0 0.00 0.00 0.00 62 1003.8
20260504130626 55 46 0.0 0.0 0.00 0.00 0.00 73 1003.9
20260504130123 54 45 0.0 0.9 0.00 0.00 0.00 75 1003.8
20260504110514 48 60 0.0 0.0 0.00 0.00 0.00 88 1003.9
20260504100431 48 65 0.0 0.9 0.00 0.00 0.00 86 1004.0
20260504081823 50 72 0.0 0.0 0.00 0.00 0.00 87 1005.5
20260504081321 50 72 0.9 0.9 0.00 0.00 0.00 86 1005.6
20260504080816 50 71 0.0 0.9 0.00 0.00 0.00 86 1005.9
20260504080313 50 71 0.0 0.0 0.00 0.00 0.00 87 1005.9
20260504070240 50 72 0.0 0.0 0.00 0.00 0.00 88 1007.2
20260504060201 51 67 0.0 0.0 0.00 0.00 0.00 87 1008.2
20260504050629 53 67 0.0 0.9 0.00 0.00 0.00 81 1008.6
20260504050126 54 67 0.0 0.9 0.00 0.00 0.00 79 1008.7
20260504045623 54 66 0.0 0.0 0.00 0.00 0.00 80 1008.9
20260504045118 54 66 0.0 0.0 0.00 0.00 0.00 80 1008.9
20260504044616 54 73 0.0 0.9 0.00 0.00 0.00 80 1009.0
20260504044112 54 73 0.0 0.0 0.00 0.00 0.00 79 1009.1
20260504043610 55 73 0.0 0.0 0.00 0.00 0.00 80 1009.3
20260504043107 55 73 0.0 0.0 0.00 0.00 0.00 79 1009.3
20260504042604 54 73 0.0 0.0 0.00 0.00 0.00 77 1009.5
20260504042101 55 73 0.0 0.0 0.00 0.00 0.00 80 1009.6
20260504041556 55 73 0.0 0.0 0.00 0.00 0.00 79 1009.6
20260504041053 55 73 0.0 0.0 0.00 0.00 0.00 79 1009.6
20260504040550 55 73 0.0 0.0 0.00 0.00 0.00 78 1009.4
20260504040047 55 73 0.0 0.0 0.00 0.00 0.00 75 1009.5
20260504035544 55 73 0.0 0.0 0.00 0.00 0.00 74 1009.4
20260504035040 55 73 0.0 0.0 0.00 0.00 0.00 74 1009.7
20260504034538 56 73 0.0 0.0 0.00 0.00 0.00 76 1009.5
20260504034035 56 73 0.0 0.0 0.00 0.00 0.00 77 1009.7
20260504033533 56 73 0.0 0.0 0.00 0.00 0.00 74 1009.6
20260504033030 56 73 0.0 0.0 0.00 0.00 0.00 75 1009.7
20260504032527 56 73 0.0 0.0 0.00 0.00 0.00 76 1009.7
20260504032023 56 73 0.0 0.0 0.00 0.00 0.00 74 1009.8
20260504031521 57 73 0.0 0.9 0.00 0.00 0.00 74 1009.9
20260504031016 57 73 0.0 0.0 0.00 0.00 0.00 74 1009.8
20260504030514 57 73 0.0 0.0 0.00 0.00 0.00 74 1010.0
20260504030010 57 73 0.0 0.0 0.00 0.00 0.00 68 1010.0